#timestamp,LO_Frequency,Hit,StdDev 
1605211215.5,286046997.9,N
1605211235.3,286046993.2,N
1605211255.2,286046991.7,N
1605211275.0,286046990.9,N
1605211275.9,286046990.9,Y
1605211295.8,286046998.2,P
1605211315.6,286046999.6,N
1605211335.4,286046994.9,N
1605211355.3,286046998.8,N
1605211375.1,286046994.9,N
1605211395.9,286046993.9,N
1605211415.7,286046997.3,N
1605211435.5,286046994.0,N
1605211455.4,286046995.1,N
1605211475.2,286046992.6,Y
1605211495.0,286046994.2,P
1605211496.0,286046994.2,P
1605211515.8,286046994.5,P
1605211535.6,286046994.3,Y
1605211555.5,286047001.0,P
1605211575.3,286047001.1,N
1605211595.2,286047000.6,N
1605211615.9,286047000.6,N
1605211635.7,286047002.7,N
1605211655.6,286046999.7,N
1605211675.4,286047001.8,N
1605211695.2,286047004.3,N
1605211715.1,286046998.5,N
1605211716.0,286046998.5,N
1605211735.8,286046995.1,N
1605211755.7,286046999.3,N
1605211775.5,286046997.0,N
1605211795.3,286046998.1,N
1605211815.2,286046998.7,N
1605211835.0,286047001.8,N
1605211835.9,286047001.8,N
1605211855.8,286047001.9,N
1605211875.6,286047000.2,N
1605211895.4,286047001.5,N
1605211915.3,286047003.9,N
1605211935.1,286047002.4,N
1605211955.9,286046995.3,N
1605211975.7,286046996.4,N
1605211995.5,286046994.3,N
1605212015.4,286046988.8,Y
1605212035.2,286046989.0,P
1605212055.1,286046990.2,N
1605212056.0,286046990.2,N
1605212075.8,286046994.4,N
1605212095.6,286046997.1,N
1605212115.5,286046996.4,N
1605212135.3,286046994.9,N
1605212155.1,286046997.1,N
1605212175.9,286046996.5,N
1605212195.7,286046999.0,N
1605212215.6,286046997.3,N
1605212235.4,286047000.9,N
1605212255.2,286047001.9,N
1605212275.1,286047000.1,N
1605212276.0,286047000.1,N
1605212295.8,286047003.7,N
1605212315.6,286047002.8,N
1605212335.5,286047002.5,N
1605212355.3,286047000.4,N
1605212375.2,286047002.7,N
1605212395.0,286047002.0,N
1605212395.9,286047002.0,N
1605212415.8,286047001.0,N
1605212435.6,286047000.7,N
1605212455.4,286046999.3,N
1605212475.3,286046998.5,N
1605212495.1,286046999.6,N
1605212515.9,286046997.1,N
1605212535.7,286046998.7,N
1605212555.5,286046996.5,N
1605212575.4,286046999.4,N
1605212595.2,286046995.0,N
1605212615.1,286046997.4,N
1605212616.0,286046997.4,N
1605212635.8,286046999.3,N
1605212655.6,286046995.0,N
1605212675.5,286046996.0,N
1605212695.3,286046994.0,N
1605212715.2,286046990.4,Y
1605212735.3,286046988.9,P
1605212755.1,286046989.1,N
1605212756.0,286046989.1,N
1605212775.9,286046988.9,N
1605212795.7,286046993.5,N
1605212815.5,286046995.2,N
1605212835.4,286046995.3,N
1605212855.2,286046997.4,N
1605212875.0,286046997.2,N
1605212875.9,286046997.2,N
1605212895.8,286046997.0,N
1605212915.6,286046996.6,N
1605212935.5,286046998.7,N
1605212955.3,286046997.2,N
1605212975.1,286046996.6,N
1605212995.9,286046999.3,N
1605213015.7,286046995.4,N
1605213035.5,286046995.1,N
1605213055.4,286046996.0,N
1605213075.2,286046995.0,N
1605213095.1,286046997.8,N
1605213096.0,286046997.8,N
1605213115.8,286046995.8,N
1605213135.6,286046993.8,N
1605213155.5,286046990.9,N
1605213175.3,286046987.1,Y
1605213195.2,286046994.3,P
1605213215.9,286046996.4,P
1605213235.7,286046997.6,N
1605213255.6,286047001.0,N
1605213275.4,286047001.9,N
1605213295.3,286047004.3,N
1605213315.1,286047004.2,N
1605213316.0,286047004.2,N
1605213335.8,286047001.6,N
1605213355.7,286047002.5,N
1605213375.5,286047000.5,N
1605213395.3,286047004.3,N
1605213415.2,286047004.4,N
1605213435.0,286047004.2,N
1605213435.9,286047004.2,N
1605213455.8,286047001.9,N
1605213475.6,286047004.0,N
1605213495.4,286047000.9,N
1605213515.3,286046997.0,N
1605213535.1,286046998.9,N
1605213555.9,286046996.6,N
1605213575.7,286047000.8,N
1605213595.5,286047000.4,N
1605213615.4,286046996.8,N
1605213635.2,286046999.0,N
1605213655.0,286046997.0,N
1605213655.9,286046997.0,N
1605213675.8,286046998.8,N
1605213695.6,286046996.7,N
1605213715.5,286046998.8,N
1605213735.3,286047000.7,N
1605213755.1,286047002.6,N
1605213775.9,286046998.5,N
1605213795.7,286046999.5,N
1605213815.6,286047011.9,Y
1605213835.4,286047000.8,P
1605213855.2,286046996.7,P
1605213875.1,286046997.8,N
1605213876.0,286046997.8,N
1605213895.8,286046997.1,N
1605213915.7,286046995.3,N
1605213935.5,286046994.5,N
1605213955.3,286046989.5,Y
1605213975.2,286046994.2,P
1605213995.0,286046991.8,P
1605213995.9,286046991.8,P
1605214015.8,286046995.4,N
1605214035.6,286046999.6,N
1605214055.4,286046993.7,N
1605214075.3,286047001.1,N
1605214095.1,286046997.7,N
1605214115.9,286046999.4,N
1605214135.7,286046995.8,N
1605214155.5,286046999.0,N
1605214175.4,286046999.2,N
1605214195.2,286046996.8,N
1605214215.0,286046999.4,N
1605214215.9,286046999.4,N
1605214235.8,286046998.7,N
1605214255.6,286046998.8,N
1605214275.5,286047000.6,N
1605214295.3,286047002.3,N
1605214315.1,286047002.1,N
1605214335.9,286047008.7,N
1605214355.7,286047005.1,N
1605214375.5,286047009.0,N
1605214395.4,286047014.0,Y
1605214415.2,286047012.6,P
1605214435.1,286047014.1,N
1605214436.0,286047014.1,N
1605214455.8,286047017.9,N
1605214475.6,286047021.6,Y
1605214495.5,286047008.8,P
1605214515.3,286047010.3,P
1605214535.2,286047009.6,P
1605214555.9,286047008.5,Y
1605214575.7,286046995.3,P
1605214595.6,286046991.8,N
1605214615.4,286046989.2,N
1605214635.2,286046989.6,N
1605214655.1,286046990.9,N
1605214656.0,286046990.9,N
1605214675.8,286046991.1,N
1605214695.7,286046988.2,N
1605214715.5,286046986.9,N
1605214735.3,286046990.9,N
1605214755.2,286046992.7,N
1605214775.0,286046992.0,N
1605214775.9,286046992.0,N
1605214795.7,286046994.2,N
